Time,TemperatureF,DewpointF,PressureIn,WindDirection,WindDirectionDegrees,WindSpeedMPH,WindSpeedGustMPH,Humidity,HourlyPrecipIn,Conditions,Clouds,dailyrainin,SoftwareType,DateUTC
2015-08-29 00:04:00,57.0,56.0,30.09,North,350,0.0,0.0,95,-99.99,,,-99.99,,2015-08-29 04:04:00,
2015-08-29 00:13:00,57.0,56.0,30.09,North,350,0.0,0.0,95,-99.99,,,-99.99,,2015-08-29 04:13:00,
2015-08-29 00:23:00,56.0,54.0,30.09,North,350,0.0,0.0,94,-99.99,,,-99.99,,2015-08-29 04:23:00,
2015-08-29 00:33:00,56.0,55.0,30.10,North,350,0.0,0.0,95,-99.99,,,-99.99,,2015-08-29 04:33:00,
2015-08-29 00:44:00,56.0,55.0,30.10,North,350,0.0,0.0,95,-99.99,,,-99.99,,2015-08-29 04:44:00,
2015-08-29 00:53:00,56.0,55.0,30.10,North,350,0.0,0.0,95,-99.99,,,-99.99,,2015-08-29 04:53:00,
2015-08-29 01:04:00,55.0,54.0,30.10,North,350,0.0,0.0,96,-99.99,,,-99.99,,2015-08-29 05:04:00,
2015-08-29 01:13:00,55.0,54.0,30.10,North,350,0.0,0.0,96,-99.99,,,-99.99,,2015-08-29 05:13:00,
2015-08-29 01:23:00,55.0,54.0,30.10,North,350,0.0,0.0,96,-99.99,,,-99.99,,2015-08-29 05:23:00,
2015-08-29 01:34:00,55.0,54.0,30.10,North,350,0.0,0.0,96,-99.99,,,-99.99,,2015-08-29 05:34:00,
2015-08-29 01:44:00,55.0,54.0,30.10,North,350,0.0,0.0,97,-99.99,,,-99.99,,2015-08-29 05:44:00,
2015-08-29 01:53:00,55.0,54.0,30.10,North,350,0.0,0.0,97,-99.99,,,-99.99,,2015-08-29 05:53:00,
2015-08-29 02:04:00,54.0,53.0,30.09,North,350,0.0,0.0,96,-99.99,,,-99.99,,2015-08-29 06:04:00,
2015-08-29 02:13:00,54.0,53.0,30.09,North,350,0.0,0.0,97,-99.99,,,-99.99,,2015-08-29 06:13:00,
2015-08-29 02:24:00,54.0,53.0,30.09,North,350,0.0,0.0,97,-99.99,,,-99.99,,2015-08-29 06:24:00,
2015-08-29 02:34:00,54.0,53.0,30.09,North,350,0.0,0.0,97,-99.99,,,-99.99,,2015-08-29 06:34:00,
2015-08-29 02:44:00,54.0,53.0,30.09,North,350,0.0,0.0,97,-99.99,,,-99.99,,2015-08-29 06:44:00,
2015-08-29 02:53:00,54.0,53.0,30.09,North,350,0.0,0.0,97,-99.99,,,-99.99,,2015-08-29 06:53:00,
2015-08-29 03:03:00,54.0,53.0,30.07,North,350,0.0,0.0,97,-99.99,,,-99.99,,2015-08-29 07:03:00,
2015-08-29 03:13:00,54.0,53.0,30.07,North,350,0.0,0.0,97,-99.99,,,-99.99,,2015-08-29 07:13:00,
2015-08-29 03:23:00,54.0,53.0,30.07,North,350,0.0,0.0,97,-99.99,,,-99.99,,2015-08-29 07:23:00,
2015-08-29 03:33:00,54.0,53.0,30.06,North,350,0.0,0.0,97,-99.99,,,-99.99,,2015-08-29 07:33:00,
2015-08-29 03:43:00,53.0,52.0,30.06,North,350,0.0,0.0,97,-99.99,,,-99.99,,2015-08-29 07:43:00,
2015-08-29 04:03:00,53.0,52.0,30.06,North,350,0.0,0.0,97,-99.99,,,-99.99,,2015-08-29 08:03:00,
2015-08-29 04:13:00,52.0,51.0,30.06,North,350,0.0,0.0,97,-99.99,,,-99.99,,2015-08-29 08:13:00,
2015-08-29 04:23:00,52.0,51.0,30.06,North,350,0.0,0.0,97,-99.99,,,-99.99,,2015-08-29 08:23:00,
2015-08-29 04:33:00,52.0,51.0,30.06,North,350,0.0,0.0,97,-99.99,,,-99.99,,2015-08-29 08:33:00,
2015-08-29 04:44:00,53.0,52.0,30.05,North,350,0.0,0.0,97,-99.99,,,-99.99,,2015-08-29 08:44:00,
2015-08-29 04:54:00,53.0,52.0,30.05,North,350,0.0,0.0,97,-99.99,,,-99.99,,2015-08-29 08:54:00,
2015-08-29 05:04:00,53.0,52.0,30.05,North,350,0.0,0.0,97,-99.99,,,-99.99,,2015-08-29 09:04:00,
2015-08-29 05:13:00,53.0,52.0,30.05,North,350,0.0,0.0,98,-99.99,,,-99.99,,2015-08-29 09:13:00,
2015-08-29 05:23:00,53.0,52.0,30.05,North,350,0.0,0.0,98,-99.99,,,-99.99,,2015-08-29 09:23:00,
2015-08-29 05:33:00,53.0,52.0,30.05,North,350,0.0,0.0,98,-99.99,,,-99.99,,2015-08-29 09:33:00,
2015-08-29 05:44:00,53.0,52.0,30.05,North,350,0.0,0.0,98,-99.99,,,-99.99,,2015-08-29 09:44:00,
2015-08-29 05:54:00,53.0,52.0,30.05,North,350,0.0,0.0,98,-99.99,,,-99.99,,2015-08-29 09:54:00,
2015-08-29 06:04:00,53.0,52.0,30.05,North,350,0.0,0.0,98,-99.99,,,-99.99,,2015-08-29 10:04:00,
2015-08-29 06:23:00,54.0,53.0,30.05,North,350,0.0,0.0,98,-99.99,,,-99.99,,2015-08-29 10:23:00,
2015-08-29 06:33:00,54.0,53.0,30.05,North,350,0.0,0.0,98,-99.99,,,-99.99,,2015-08-29 10:33:00,
2015-08-29 06:44:00,54.0,53.0,30.05,North,350,0.0,0.0,98,-99.99,,,-99.99,,2015-08-29 10:44:00,
2015-08-29 06:53:00,54.0,53.0,30.05,North,350,0.0,0.0,98,-99.99,,,-99.99,,2015-08-29 10:53:00,
2015-08-29 07:04:00,54.0,53.0,30.05,North,350,0.0,0.0,98,-99.99,,,-99.99,,2015-08-29 11:04:00,
2015-08-29 07:13:00,54.0,53.0,30.06,North,350,0.0,0.0,98,-99.99,,,-99.99,,2015-08-29 11:13:00,
2015-08-29 07:24:00,54.0,53.0,30.06,North,350,0.0,0.0,98,-99.99,,,-99.99,,2015-08-29 11:24:00,
2015-08-29 07:34:00,54.0,53.0,30.06,North,350,0.0,0.0,98,-99.99,,,-99.99,,2015-08-29 11:34:00,
2015-08-29 07:44:00,54.0,53.0,30.06,North,350,0.0,0.0,98,-99.99,,,-99.99,,2015-08-29 11:44:00,
2015-08-29 07:54:00,55.0,54.0,30.06,North,350,0.0,0.0,98,-99.99,,,-99.99,,2015-08-29 11:54:00,
2015-08-29 08:03:00,56.0,55.0,30.06,North,350,0.0,0.0,98,-99.99,,,-99.99,,2015-08-29 12:03:00,
2015-08-29 08:13:00,56.0,55.0,30.07,North,350,0.0,0.0,98,-99.99,,,-99.99,,2015-08-29 12:13:00,
2015-08-29 08:23:00,57.0,57.0,30.06,North,0,0.0,0.0,99,-99.99,,,-99.99,,2015-08-29 12:23:00,
2015-08-29 08:34:00,57.0,57.0,30.06,North,0,0.0,0.0,99,-99.99,,,-99.99,,2015-08-29 12:34:00,
2015-08-29 08:44:00,57.0,57.0,30.06,North,0,0.0,0.0,99,-99.99,,,-99.99,,2015-08-29 12:44:00,
2015-08-29 08:54:00,59.0,59.0,30.06,North,5,0.0,0.0,99,-99.99,,,-99.99,,2015-08-29 12:54:00,
2015-08-29 09:03:00,59.0,59.0,30.06,North,5,0.0,0.0,99,-99.99,,,-99.99,,2015-08-29 13:03:00,
2015-08-29 09:13:00,60.0,60.0,30.07,NNE,14,0.0,0.0,99,-99.99,,,-99.99,,2015-08-29 13:13:00,
2015-08-29 09:24:00,60.0,60.0,30.06,NNE,30,0.0,0.0,99,-99.99,,,-99.99,,2015-08-29 13:24:00,
2015-08-29 09:34:00,62.0,62.0,30.06,NNE,30,0.0,0.0,99,-99.99,,,-99.99,,2015-08-29 13:34:00,
2015-08-29 09:44:00,63.0,63.0,30.06,NNE,31,0.0,0.0,99,-99.99,,,-99.99,,2015-08-29 13:44:00,
2015-08-29 09:53:00,63.0,63.0,30.06,NNE,31,0.0,0.0,99,-99.99,,,-99.99,,2015-08-29 13:53:00,
2015-08-29 10:03:00,65.0,64.0,30.06,ENE,77,0.0,3.0,95,-99.99,,,-99.99,,2015-08-29 14:03:00,
2015-08-29 10:13:00,65.0,63.0,30.06,East,86,1.0,3.0,94,-99.99,,,-99.99,,2015-08-29 14:13:00,
2015-08-29 10:23:00,65.0,63.0,30.06,East,86,1.0,3.0,94,-99.99,,,-99.99,,2015-08-29 14:23:00,
2015-08-29 10:33:00,65.0,63.0,30.06,East,86,1.0,3.0,94,-99.99,,,-99.99,,2015-08-29 14:33:00,
2015-08-29 10:43:00,65.0,63.0,30.06,East,86,1.0,3.0,94,-99.99,,,-99.99,,2015-08-29 14:43:00,
2015-08-29 10:53:00,65.0,63.0,30.06,East,86,1.0,3.0,94,-99.99,,,-99.99,,2015-08-29 14:53:00,
2015-08-29 11:13:00,73.0,64.0,30.06,SSW,195,0.0,5.0,73,-99.99,,,-99.99,,2015-08-29 15:13:00,
2015-08-29 11:23:00,74.0,63.0,30.06,SSW,213,6.0,7.0,69,-99.99,,,-99.99,,2015-08-29 15:23:00,
2015-08-29 11:34:00,75.0,63.0,30.06,South,190,6.0,8.0,67,-99.99,,,-99.99,,2015-08-29 15:34:00,
2015-08-29 11:44:00,76.0,65.0,30.06,SSW,198,5.0,6.0,68,-99.99,,,-99.99,,2015-08-29 15:44:00,
2015-08-29 11:53:00,77.0,64.0,30.06,SW,229,6.0,6.0,65,-99.99,,,-99.99,,2015-08-29 15:53:00,
2015-08-29 12:15:00,78.0,65.0,30.06,SSE,168,1.0,6.0,64,-99.99,,,-99.99,,2015-08-29 16:15:00,
2015-08-29 12:24:00,78.0,65.0,30.06,SSE,168,1.0,6.0,64,-99.99,,,-99.99,,2015-08-29 16:24:00,
2015-08-29 12:33:00,78.0,65.0,30.06,SSE,168,1.0,6.0,64,-99.99,,,-99.99,,2015-08-29 16:33:00,
2015-08-29 12:54:00,79.0,65.0,30.04,SW,223,4.0,6.0,62,-99.99,,,-99.99,,2015-08-29 16:54:00,
2015-08-29 13:04:00,78.0,64.0,30.04,West,271,6.0,7.0,63,-99.99,,,-99.99,,2015-08-29 17:04:00,
2015-08-29 13:13:00,78.0,66.0,30.03,SSW,199,1.0,4.0,66,-99.99,,,-99.99,,2015-08-29 17:13:00,
2015-08-29 13:23:00,78.0,66.0,30.03,South,179,1.0,2.0,67,-99.99,,,-99.99,,2015-08-29 17:23:00,
2015-08-29 13:34:00,79.0,66.0,30.03,SSE,165,2.0,8.0,65,-99.99,,,-99.99,,2015-08-29 17:34:00,
2015-08-29 13:44:00,78.0,65.0,30.03,SSW,195,2.0,9.0,65,-99.99,,,-99.99,,2015-08-29 17:44:00,
2015-08-29 13:54:00,78.0,65.0,30.03,SSW,195,2.0,9.0,65,-99.99,,,-99.99,,2015-08-29 17:54:00,
2015-08-29 14:04:00,81.0,67.0,30.02,SW,214,5.0,7.0,62,-99.99,,,-99.99,,2015-08-29 18:04:00,
2015-08-29 14:13:00,82.0,67.0,30.02,SW,223,8.0,12.0,61,-99.99,,,-99.99,,2015-08-29 18:13:00,
2015-08-29 14:24:00,82.0,67.0,30.02,SW,223,8.0,12.0,61,-99.99,,,-99.99,,2015-08-29 18:24:00,
2015-08-29 14:34:00,83.0,67.0,30.01,West,261,2.0,9.0,58,-99.99,,,-99.99,,2015-08-29 18:34:00,
2015-08-29 14:44:00,84.0,68.0,30.01,WSW,250,7.0,9.0,59,-99.99,,,-99.99,,2015-08-29 18:44:00,
2015-08-29 14:54:00,84.0,68.0,30.01,SW,221,5.0,10.0,58,-99.99,,,-99.99,,2015-08-29 18:54:00,
2015-08-29 15:04:00,83.0,67.0,30.00,SSW,209,7.0,12.0,58,-99.99,,,-99.99,,2015-08-29 19:04:00,
2015-08-29 15:13:00,84.0,68.0,30.00,SW,227,6.0,11.0,59,-99.99,,,-99.99,,2015-08-29 19:13:00,
2015-08-29 15:24:00,83.0,68.0,30.00,SW,234,2.0,9.0,60,-99.99,,,-99.99,,2015-08-29 19:24:00,
2015-08-29 15:34:00,82.0,67.0,30.00,South,173,2.0,5.0,60,-99.99,,,-99.99,,2015-08-29 19:34:00,
2015-08-29 15:44:00,82.0,67.0,30.00,South,173,2.0,5.0,60,-99.99,,,-99.99,,2015-08-29 19:44:00,
2015-08-29 16:03:00,82.0,67.0,30.00,South,173,2.0,5.0,60,-99.99,,,-99.99,,2015-08-29 20:03:00,
2015-08-29 16:13:00,82.0,67.0,30.00,South,173,2.0,5.0,60,-99.99,,,-99.99,,2015-08-29 20:13:00,
2015-08-29 16:23:00,82.0,67.0,29.98,WSW,240,2.0,5.0,60,-99.99,,,-99.99,,2015-08-29 20:23:00,
2015-08-29 16:34:00,82.0,67.0,29.98,WSW,257,5.0,8.0,61,-99.99,,,-99.99,,2015-08-29 20:34:00,
2015-08-29 16:44:00,84.0,68.0,29.98,West,267,5.0,9.0,59,-99.99,,,-99.99,,2015-08-29 20:44:00,
2015-08-29 16:54:00,85.0,68.0,29.98,WSW,244,4.0,10.0,57,-99.99,,,-99.99,,2015-08-29 20:54:00,
2015-08-29 17:03:00,85.0,68.0,29.98,SW,229,7.0,11.0,56,-99.99,,,-99.99,,2015-08-29 21:03:00,
2015-08-29 17:13:00,85.0,68.0,29.98,SW,229,7.0,11.0,56,-99.99,,,-99.99,,2015-08-29 21:13:00,
2015-08-29 17:23:00,84.0,68.0,29.98,SW,217,7.0,13.0,59,-99.99,,,-99.99,,2015-08-29 21:23:00,
2015-08-29 17:34:00,84.0,68.0,29.98,SW,233,9.0,10.0,59,-99.99,,,-99.99,,2015-08-29 21:34:00,
2015-08-29 17:44:00,83.0,67.0,29.98,SSW,199,7.0,13.0,59,-99.99,,,-99.99,,2015-08-29 21:44:00,
2015-08-29 17:57:00,83.0,67.0,29.98,SW,221,10.0,12.0,59,-99.99,,,-99.99,,2015-08-29 21:57:00,
2015-08-29 18:05:00,83.0,67.0,29.98,SW,221,10.0,-999.0,59,-99.99,,,-99.99,,2015-08-29 22:05:00,
2015-08-29 18:13:00,83.0,67.0,29.98,SW,221,10.0,12.0,59,-99.99,,,-99.99,,2015-08-29 22:13:00,
2015-08-29 18:34:00,81.0,68.0,29.98,SW,223,5.0,9.0,64,-99.99,,,-99.99,,2015-08-29 22:34:00,
2015-08-29 18:43:00,81.0,68.0,29.98,SSW,192,3.0,8.0,64,-99.99,,,-99.99,,2015-08-29 22:43:00,
2015-08-29 18:54:00,81.0,68.0,29.98,SSW,192,3.0,8.0,64,-99.99,,,-99.99,,2015-08-29 22:54:00,
2015-08-29 19:04:00,81.0,68.0,29.98,SSW,192,3.0,8.0,64,-99.99,,,-99.99,,2015-08-29 23:04:00,
2015-08-29 19:13:00,81.0,68.0,29.98,SSW,192,3.0,8.0,64,-99.99,,,-99.99,,2015-08-29 23:13:00,
2015-08-29 19:23:00,79.0,68.0,29.98,SW,215,4.0,6.0,70,-99.99,,,-99.99,,2015-08-29 23:23:00,
2015-08-29 19:34:00,79.0,68.0,29.98,SW,215,4.0,6.0,70,-99.99,,,-99.99,,2015-08-29 23:34:00,
2015-08-29 19:44:00,77.0,67.0,29.98,SSW,203,1.0,4.0,72,-99.99,,,-99.99,,2015-08-29 23:44:00,
2015-08-29 20:03:00,77.0,68.0,29.98,SSW,203,2.0,3.0,73,-99.99,,,-99.99,,2015-08-30 00:03:00,
2015-08-29 20:13:00,76.0,68.0,29.98,SSW,211,1.0,2.0,76,-99.99,,,-99.99,,2015-08-30 00:13:00,
2015-08-29 20:23:00,76.0,68.0,29.98,SSW,211,1.0,2.0,76,-99.99,,,-99.99,,2015-08-30 00:23:00,
2015-08-29 20:33:00,76.0,68.0,29.98,SSW,211,1.0,2.0,76,-99.99,,,-99.99,,2015-08-30 00:33:00,
2015-08-29 20:44:00,74.0,67.0,29.98,SSW,211,0.0,2.0,79,-99.99,,,-99.99,,2015-08-30 00:44:00,
2015-08-29 20:53:00,74.0,67.0,29.98,SSW,211,0.0,1.0,79,-99.99,,,-99.99,,2015-08-30 00:53:00,
2015-08-29 21:03:00,74.0,67.0,29.98,SSW,211,0.0,1.0,79,-99.99,,,-99.99,,2015-08-30 01:03:00,
2015-08-29 21:13:00,73.0,67.0,29.99,SSW,211,0.0,1.0,81,-99.99,,,-99.99,,2015-08-30 01:13:00,
2015-08-29 21:23:00,73.0,67.0,29.99,SSW,211,0.0,1.0,81,-99.99,,,-99.99,,2015-08-30 01:23:00,
2015-08-29 21:33:00,73.0,67.0,30.00,SSW,211,0.0,3.0,82,-99.99,,,-99.99,,2015-08-30 01:33:00,
2015-08-29 21:43:00,73.0,68.0,30.01,SSW,213,1.0,3.0,83,-99.99,,,-99.99,,2015-08-30 01:43:00,
2015-08-29 21:53:00,73.0,67.0,30.01,SW,228,1.0,5.0,82,-99.99,,,-99.99,,2015-08-30 01:53:00,
2015-08-29 22:03:00,73.0,67.0,30.01,SSW,211,3.0,5.0,82,-99.99,,,-99.99,,2015-08-30 02:03:00,
2015-08-29 22:13:00,73.0,67.0,30.01,SSW,213,3.0,5.0,82,-99.99,,,-99.99,,2015-08-30 02:13:00,
2015-08-29 22:23:00,73.0,67.0,30.01,SW,217,5.0,5.0,82,-99.99,,,-99.99,,2015-08-30 02:23:00,
2015-08-29 22:33:00,73.0,67.0,30.01,SW,216,2.0,5.0,82,-99.99,,,-99.99,,2015-08-30 02:33:00,
2015-08-29 22:43:00,72.0,66.0,30.02,SW,236,3.0,5.0,82,-99.99,,,-99.99,,2015-08-30 02:43:00,